Location: Home
(42.5358°N, 72.7383°W)
Time: 12:10:24
(UTC-05:00)

Explorer 7 - Pass Details

Date: 01 December 2021
Orbit: 483 x 674 km, 50.3° (Epoch: 20 January)

Event Time Altitude Azimuth Distance (km) Brightness Sun altitude
Rises 13:11:37 0° 293° (WNW) 2,569 10.3 22.2°
Reaches altitude 10° 13:14:05 10° 279° (W) 1,670 9.5 22.0°
Maximum altitude 13:17:09 24° 224° (SW) 1,038 10.0 21.8°
Drops below altitude 10° 13:20:11 10° 169° (S) 1,655 10.3 21.5°
Sets 13:22:37 0° 155° (SSE) 2,539 10.8 21.4°
